Theta_e
282 283 285 284 285 285 285 285 284 283 284 283 283 285 288 285 282 282 286 284 284 287 290 288 287 289 290 290 290 291 291 288 288 291 293 294 293 292 292 293 294 294 295 295 295 294 295 293 293 293 294 294 291 291 291 292 290 292 293 292 293 294 294 294 296 297 297 294 293 292 290 290 290 290 290 289 288 289 289 290 290 290 290 290 290 290 290
284 284 284 285 285 284 284 282 282 284 284 284 285 286 287 286 284 286 285 283 284 288 288 289 289 288 290 291 289 289 290 291 291 290 291 292 293 293 294 295 295 295 295 293 293 293 292 292 293 293 294 294 294 293 294 293 291 292 289 291 293 294 294 295 297 297 294 291 290 289 289 290 289 288 288 288 288 288 289 289 289 288 288 288 289 290 289
283 284 284 283 283 284 283 283 283 284 284 285 285 285 285 285 283 286 286 285 285 291 291 291 292 293 292 291 290 292 292 291 290 290 291 293 293 294 294 295 295 293 293 293 292 292 293 293 293 294 294 294 294 293 293 292 292 291 288 290 291 292 294 295 296 294 292 291 289 289 289 287 287 288 288 288 288 288 288 288 288 287 287 287 287 288 289
283 285 284 283 283 283 284 285 285 285 285 283 283 283 284 284 285 286 284 283 286 292 291 292 293 291 291 293 293 293 293 293 290 290 291 291 293 294 294 294 293 292 292 292 292 292 293 293 293 293 294 294 293 293 294 293 292 289 288 290 291 292 293 294 294 293 292 290 290 290 289 289 289 289 288 288 288 288 288 287 287 286 286 287 287 287 288
284 285 284 284 284 284 283 284 287 288 288 288 287 287 287 288 289 284 284 286 292 293 291 290 293 292 291 292 293 292 292 291 291 291 292 291 291 292 292 292 292 291 292 292 292 292 292 293 294 294 293 292 293 294 294 294 289 288 288 289 290 291 292 292 292 291 290 290 290 289 289 289 288 288 288 288 288 287 287 287 285 285 286 286 286 286 287
284 285 284 285 284 278 280 292 294 292 289 289 287 287 289 290 291 289 292 292 294 293 293 292 293 294 294 293 292 292 292 291 290 290 289 290 290 290 290 289 289 290 291 292 292 291 291 291 292 292 290 290 292 292 291 291 290 290 288 289 289 290 291 291 291 290 289 289 290 290 288 287 287 287 287 288 288 287 286 284 285 285 284 285 285 285 286
284 283 285 282 277 280 291 292 294 294 294 293 291 291 292 292 293 293 293 294 295 295 296 295 295 294 292 290 290 291 289 289 289 289 290 289 289 290 290 291 291 290 290 290 290 291 291 291 290 289 290 291 290 290 291 291 290 289 288 288 288 289 289 290 289 289 289 289 289 288 287 287 287 287 287 287 286 285 285 285 285 285 285 284 284 284 285
284 282 283 277 278 287 287 288 291 291 292 290 289 287 290 291 292 293 292 294 296 296 296 296 293 289 288 286 286 287 288 288 290 288 291 291 288 290 291 289 290 291 291 290 289 290 289 288 289 288 289 289 288 290 289 289 289 288 287 287 288 288 288 288 288 288 288 288 288 288 287 286 286 287 286 286 286 284 284 283 284 283 283 284 284 284 284
281 283 282 282 287 286 286 285 285 287 286 285 287 284 288 291 292 293 293 293 294 294 293 289 287 284 285 288 289 288 288 289 289 291 289 290 290 289 290 288 289 290 289 288 289 287 287 287 287 288 288 287 287 288 289 290 288 288 287 288 288 288 288 288 288 287 287 288 288 287 286 286 286 286 286 285 284 283 283 283 283 283 283 283 284 285 285
286 283 281 281 281 278 283 288 287 288 288 290 291 289 285 287 285 287 289 291 289 286 284 285 284 284 288 287 285 289 289 290 289 288 288 287 287 287 288 289 288 289 289 288 288 286 286 287 288 287 285 285 285 286 287 288 287 288 287 288 288 288 288 288 287 286 286 287 287 287 286 286 287 286 285 284 284 283 284 283 282 282 282 282 283 284 284
283 281 279 279 278 280 287 287 287 287 286 291 288 287 283 286 283 284 286 286 286 285 285 285 283 287 285 282 284 289 288 289 289 288 289 287 287 288 288 288 288 289 289 288 286 286 287 287 289 287 285 284 285 286 287 287 286 286 287 288 288 288 288 288 286 286 286 286 287 287 287 287 286 285 284 284 283 282 283 283 283 281 282 282 281 283 284
283 282 280 278 283 280 284 285 288 286 285 291 289 279 278 287 283 283 284 286 285 286 285 284 284 280 279 280 284 286 287 286 287 285 287 288 289 289 289 288 287 287 286 285 286 287 287 288 288 286 284 284 285 286 286 285 285 286 287 288 288 287 286 286 286 286 286 286 286 287 287 286 284 284 283 281 281 281 281 282 281 281 281 282 282 282 283
283 283 281 283 283 285 284 282 283 283 288 288 281 276 282 284 282 282 283 285 285 285 285 284 282 284 285 285 286 285 286 285 287 287 285 286 286 287 288 289 288 287 287 286 286 287 287 287 286 285 284 284 286 286 286 285 286 287 287 286 286 286 285 285 285 285 285 285 286 286 285 285 283 281 281 281 280 281 280 280 280 279 280 281 282 282 282
281 282 280 280 283 282 284 284 285 284 287 280 279 284 281 285 283 282 283 284 283 284 285 284 285 284 285 284 283 284 285 285 285 286 286 286 286 286 286 287 287 288 287 286 286 287 286 285 284 283 282 283 285 285 285 285 286 287 286 285 285 284 284 284 284 283 283 283 283 284 280 280 280 280 278 280 281 281 280 280 280 280 280 281 281 280 280
284 282 279 279 274 283 285 286 283 286 282 281 286 284 282 280 281 284 283 284 286 284 285 283 284 283 283 284 285 284 285 285 286 286 286 286 286 286 286 287 287 286 286 287 287 287 288 285 283 282 280 283 285 285 285 286 286 285 284 284 283 283 283 282 282 281 281 280 282 279 279 280 280 279 278 279 279 280 279 279 279 280 280 280 280 279 279
277 280 277 278 285 288 286 286 283 282 282 285 283 284 282 282 281 282 285 283 284 283 286 285 284 284 284 284 284 284 285 285 286 286 285 286 286 288 288 287 287 285 286 287 287 287 287 287 284 281 280 283 284 284 285 286 285 284 283 282 281 281 281 280 279 278 277 276 277 277 278 279 279 279 279 279 279 279 280 279 279 279 280 279 279 278 278
282 278 280 282 285 285 285 284 284 287 287 284 283 284 285 285 286 284 286 286 286 286 287 287 286 287 288 287 287 287 288 288 288 288 288 288 288 289 288 288 287 286 286 286 286 286 287 287 287 285 280 282 282 283 285 284 284 283 282 281 279 280 280 278 276 274 275 275 275 275 276 279 279 279 278 279 279 278 279 280 280 279 279 279 278 278 278
279 279 282 281 282 283 284 284 284 287 286 285 286 285 284 285 285 287 287 287 286 287 287 288 286 287 288 287 287 287 287 287 287 287 288 288 288 288 287 287 287 286 286 285 285 285 286 286 286 286 283 279 282 285 285 283 282 281 280 279 279 280 278 275 275 273 274 274 274 274 276 278 280 280 280 280 279 279 279 280 280 279 278 278 278 278 278
281 278 282 283 285 283 282 283 283 283 284 284 283 284 285 286 285 285 285 286 286 285 285 286 287 287 286 286 286 286 286 285 285 285 286 287 286 285 285 286 286 286 285 285 285 285 285 286 285 285 284 283 282 283 283 283 281 279 278 278 279 279 277 275 273 273 274 275 274 274 274 276 277 279 280 280 280 280 280 280 279 279 279 278 278 278 277
281 277 280 282 283 282 282 281 285 285 285 284 282 284 283 282 282 283 283 283 283 282 283 282 282 282 281 281 283 283 284 284 284 284 284 284 285 285 285 285 285 285 285 284 284 283 284 285 284 284 283 283 282 282 281 280 278 277 278 279 279 279 277 274 275 274 275 277 276 275 276 278 278 278 278 280 281 281 280 280 279 279 278 278 278 278 277
278 278 279 279 279 280 280 281 281 283 283 282 281 280 281 281 281 281 281 281 282 282 282 281 281 280 280 281 281 282 282 283 283 283 284 284 284 284 284 284 284 284 284 283 283 283 283 284 283 283 283 283 282 280 280 279 277 277 279 279 279 277 275 274 275 276 275 275 275 276 276 277 277 279 279 280 281 281 282 282 282 281 279 279 279 279 279
274 280 280 279 278 276 281 280 280 280 280 280 280 280 280 279 279 279 279 279 279 280 280 280 281 280 281 280 279 280 281 281 281 282 282 282 282 283 283 283 283 283 282 282 282 282 283 283 282 282 282 282 281 280 278 277 276 277 278 279 277 278 276 276 275 275 275 275 275 275 275 276 276 276 282 283 282 281 281 283 283 284 283 281 281 280 279
276 279 279 280 280 279 279 280 278 278 278 279 279 279 278 277 277 277 277 277 279 279 278 279 279 279 280 280 280 279 280 280 280 281 281 281 281 281 281 281 281 282 282 282 281 281 282 283 282 282 282 281 280 278 277 277 276 277 277 278 278 278 277 277 277 277 276 276 276 275 276 276 276 277 277 281 283 283 283 283 283 283 283 283 282 282 280
277 279 280 279 279 279 278 277 276 276 277 279 277 276 276 275 275 275 276 276 277 277 277 277 278 277 277 278 278 277 278 279 279 279 279 279 279 280 280 280 280 280 280 281 281 281 282 282 281 281 281 281 279 277 276 276 276 277 277 278 279 279 278 277 278 278 276 276 277 277 276 276 278 278 278 278 279 283 283 283 283 283 283 283 283 282 282
280 278 279 278 279 278 277 275 274 275 275 276 276 274 273 273 272 274 274 274 275 275 275 274 275 276 275 275 275 275 276 276 277 276 277 277 278 278 279 279 279 279 280 280 280 280 280 280 280 280 280 280 279 277 276 275 275 276 277 278 278 278 278 278 278 278 278 277 278 277 277 276 277 278 279 279 278 279 281 283 283 283 283 283 283 283 282
275 274 275 276 278 277 276 275 274 273 273 273 272 272 272 272 272 272 272 273 274 273 272 272 272 273 273 272 273 273 272 272 273 274 274 275 276 276 276 277 278 278 279 279 279 279 279 279 279 279 278 279 279 277 275 275 275 276 277 278 278 279 278 278 278 278 278 277 278 278 278 277 277 277 279 280 280 279 279 279 281 282 283 283 283 283 283
270 271 275 276 276 273 273 275 274 272 272 271 270 269 270 269 270 270 271 271 270 270 269 270 270 269 269 269 270 269 269 270 271 271 272 272 272 273 274 274 274 275 276 277 278 278 278 278 278 277 277 278 278 276 275 275 275 276 277 278 278 278 278 278 279 278 278 277 278 279 279 278 278 278 278 279 279 279 279 278 278 278 279 281 283 283 281
268 268 272 277 276 274 271 271 272 272 270 268 267 267 267 267 266 266 265 266 266 266 267 267 267 265 265 266 266 266 267 267 268 269 269 269 270 270 270 270 271 272 274 275 276 277 277 276 276 276 276 277 275 275 274 274 275 276 278 278 279 279 279 279 279 278 278 278 279 279 279 279 279 279 278 278 278 279 279 278 278 278 278 279 280 282 282
265 266 266 267 269 269 270 269 269 268 267 266 266 265 264 263 263 264 264 265 265 265 265 265 265 264 264 264 265 265 265 265 265 265 266 266 267 267 268 268 269 271 273 274 275 275 275 275 275 275 276 275 274 273 272 272 274 276 278 279 280 280 280 280 280 279 278 277 278 279 279 278 278 277 277 278 278 278 277 277 277 277 277 278 278 279 281
264 265 264 266 267 267 268 266 266 266 265 264 263 262 263 262 261 262 263 263 263 262 263 263 262 262 263 262 263 263 263 262 263 263 263 264 265 265 266 268 270 272 274 274 274 274 274 274 274 274 275 275 273 272 270 271 273 274 276 279 280 280 281 280 279 279 278 278 278 279 278 277 277 277 277 277 277 277 277 276 276 276 276 277 278 277 277
262 262 262 265 263 264 265 265 263 263 263 261 262 261 262 260 259 261 261 261 261 261 261 260 260 260 260 261 261 261 261 261 261 261 262 262 263 265 267 269 271 270 270 271 272 273 273 273 273 273 274 273 271 270 269 270 272 273 276 278 280 280 280 280 281 280 279 278 278 278 277 277 277 277 276 276 276 276 276 276 276 276 276 276 276 276 277
261 261 261 262 262 262 262 262 261 261 260 260 259 259 260 258 257 258 258 258 258 258 258 258 258 259 259 259 259 259 259 259 259 259 260 262 264 267 270 270 269 269 270 271 272 273 272 272 271 272 271 268 267 267 267 269 270 272 275 275 279 280 280 280 280 280 279 278 278 278 277 277 277 276 276 275 275 275 275 275 275 275 276 275 275 275 276
263 264 264 261 259 259 259 259 258 256 258 257 257 258 257 257 257 257 257 257 257 257 258 257 258 258 258 258 257 257 257 257 258 259 260 263 265 266 267 267 268 269 270 272 272 272 271 270 270 270 267 266 265 265 266 267 269 271 274 277 278 279 277 280 280 280 278 278 277 277 277 277 277 276 275 275 275 275 275 275 275 274 274 274 273 272 273
263 263 261 257 258 261 260 258 258 256 257 257 257 257 256 256 256 256 255 256 256 256 256 257 257 257 257 256 256 256 257 257 257 259 260 261 262 264 265 266 268 270 271 271 271 271 270 270 269 267 265 264 264 265 266 266 268 271 273 275 277 278 278 278 278 278 277 276 276 276 276 275 276 275 274 274 274 274 274 274 273 273 272 270 270 270 274
257 257 257 257 256 256 257 256 255 255 255 255 254 254 255 255 254 255 256 256 255 255 256 256 256 256 256 255 255 255 256 256 257 258 259 260 261 263 265 266 267 267 267 269 270 271 270 267 263 262 262 263 264 264 265 267 268 271 273 275 276 277 278 277 277 277 277 276 276 276 276 275 275 272 273 273 273 273 273 272 272 271 270 269 269 271 273
254 254 254 255 253 252 253 252 253 252 252 252 253 252 252 253 253 253 254 254 256 256 256 256 256 255 255 254 254 254 255 255 256 257 258 260 262 263 264 263 264 265 266 267 269 261 260 262 264 264 264 264 264 264 266 267 268 270 272 274 275 276 276 276 276 276 276 276 275 275 275 273 272 272 272 272 272 272 272 271 270 269 269 269 269 270 268
253 252 252 249 252 249 249 250 250 250 250 250 251 251 252 252 252 253 254 254 254 255 255 254 254 253 253 254 254 255 255 256 257 258 259 261 262 262 262 262 263 264 266 266 267 259 261 263 263 263 263 264 264 265 267 267 268 270 272 273 274 275 275 275 275 275 275 274 274 274 272 271 271 271 270 271 271 271 270 269 268 268 268 268 269 267 265
251 251 251 251 249 249 248 248 249 249 249 248 249 251 251 251 252 252 252 253 254 254 255 254 254 254 254 254 254 254 254 256 257 258 258 259 260 260 261 261 262 264 264 265 264 261 261 262 263 263 263 263 264 265 266 266 266 268 270 272 273 274 273 273 273 272 272 272 270 271 271 271 271 270 270 270 270 269 269 268 267 267 267 268 267 265 264
251 251 250 250 249 249 249 249 248 248 248 249 250 250 251 252 252 252 252 252 253 254 253 253 253 253 253 253 253 253 254 255 256 256 257 258 260 260 259 260 261 263 261 260 259 259 260 261 261 261 261 262 262 264 264 265 265 267 269 271 272 273 272 272 272 271 270 269 270 270 270 270 269 269 268 268 268 266 265 266 266 265 266 266 265 264 263
250 250 249 250 249 249 249 249 248 249 249 249 249 249 251 251 252 251 251 252 252 254 253 253 252 252 252 252 253 253 254 255 255 255 256 257 257 258 258 260 260 257 258 260 259 258 259 261 260 260 261 262 262 263 264 265 265 267 269 270 271 270 271 270 270 269 269 269 269 266 268 268 268 267 266 266 266 265 265 264 264 265 265 265 264 263 261
250 250 250 250 249 249 248 248 249 248 248 249 249 250 251 251 251 251 252 252 253 253 253 252 252 252 252 252 253 253 254 254 254 254 255 255 255 256 256 256 258 258 258 258 259 259 260 260 260 260 260 261 261 262 263 263 265 267 269 270 269 269 269 268 268 268 268 268 267 268 267 266 265 265 264 264 264 264 263 264 264 264 264 263 262 262 261
249 250 249 249 248 249 248 249 249 248 248 248 249 249 250 251 250 250 251 252 252 252 251 251 253 253 253 253 253 253 252 252 253 254 254 254 254 255 255 255 257 257 258 259 259 259 259 259 259 260 260 260 261 261 261 262 265 266 267 267 267 267 267 267 267 268 267 267 267 266 265 265 265 264 263 263 262 262 262 262 262 262 263 262 262 261 261
249 248 248 248 248 248 247 248 246 247 248 248 249 249 250 249 249 249 250 250 250 251 251 251 252 253 252 252 251 251 252 253 252 253 254 255 256 257 256 256 257 257 258 258 259 258 259 259 259 259 260 260 260 261 261 264 265 265 265 265 265 265 265 265 265 265 265 265 265 265 264 264 263 262 262 262 261 261 261 261 261 261 261 261 261 260 260
248 247 248 248 247 247 248 247 246 246 246 248 251 249 248 248 248 249 249 250 250 251 251 250 250 251 251 251 252 252 252 253 253 254 253 254 256 258 259 257 257 258 258 258 258 258 259 259 260 260 260 260 261 261 263 264 264 264 264 263 263 264 264 264 264 264 264 263 263 263 263 262 262 262 261 261 260 261 261 261 260 260 260 260 260 260 259
248 248 247 247 247 247 246 248 247 247 249 250 249 247 248 247 248 249 248 249 250 250 251 251 251 251 251 251 251 252 253 254 254 254 253 253 253 254 258 258 258 258 258 259 259 259 259 260 260 260 260 261 261 261 262 262 262 262 262 262 262 262 262 262 262 262 262 262 262 262 261 261 261 260 260 260 260 260 260 259 260 260 260 259 259 259 258
247 247 246 249 246 245 246 247 248 248 248 249 248 247 248 248 248 249 247 248 248 249 249 251 251 251 250 251 252 253 253 254 255 253 255 255 254 255 257 258 258 258 258 259 258 258 259 259 260 260 261 261 261 261 261 261 261 261 261 261 260 260 261 261 261 261 261 261 261 261 260 260 260 260 260 260 260 259 259 259 259 259 259 259 259 258 258
246 245 245 244 245 245 245 246 248 249 248 246 246 246 248 248 248 248 247 248 248 248 248 249 250 250 250 251 252 252 252 253 254 254 255 256 257 258 258 258 258 258 258 258 258 258 258 259 259 260 260 260 260 260 260 260 260 260 260 260 259 259 259 260 260 260 260 260 260 260 259 260 260 259 259 259 259 259 258 258 258 258 258 257 257 257 256
245 244 244 244 244 244 244 243 243 244 244 246 244 247 247 248 248 247 248 248 248 248 249 248 249 249 250 250 252 253 253 253 252 253 256 256 256 257 257 257 257 258 258 257 257 258 258 258 259 259 259 259 259 259 259 259 259 259 259 259 259 259 259 259 259 259 259 259 259 259 259 259 259 259 259 259 259 259 259 258 258 257 257 257 257 256 256
243 243 244 243 243 243 244 245 244 246 244 245 245 246 247 248 246 246 247 248 247 248 249 247 248 248 249 251 252 252 253 254 253 252 255 256 256 256 256 257 257 257 257 256 256 256 257 257 258 258 258 258 258 258 258 258 258 258 258 258 258 258 258 259 259 259 259 259 259 259 259 259 259 258 258 258 258 258 257 257 257 257 257 256 256 256 256
243 242 243 243 243 243 243 243 243 242 244 245 245 246 247 245 246 247 248 247 248 250 248 248 248 248 249 249 250 251 252 252 254 255 255 255 255 255 256 256 256 256 256 256 255 255 256 256 256 257 257 257 257 257 257 257 257 257 257 257 258 258 258 258 258 258 258 258 258 258 258 258 258 257 257 257 257 257 257 257 256 256 255 255 255 255 255
243 243 243 244 244 244 241 241 243 243 242 244 244 246 247 245 245 248 247 248 247 247 248 248 248 248 249 249 250 250 251 252 253 254 254 254 254 255 255 255 255 255 256 255 255 255 255 255 255 255 255 256 256 256 256 256 256 256 256 256 256 257 257 257 257 257 257 257 257 257 257 257 257 257 257 256 256 256 255 255 255 255 255 254 254 254 254
242 241 241 241 241 241 240 240 242 243 242 244 243 245 245 246 245 246 245 250 247 246 247 247 247 248 247 249 250 250 251 252 252 253 253 253 253 253 254 254 254 254 254 254 254 254 254 254 254 254 254 254 254 255 255 256 255 255 255 256 256 256 256 256 256 256 256 256 256 256 256 255 256 255 255 255 255 254 254 254 254 253 253 252 252 252 252
Wind_Speed
3 4 5 6 4 5 6 9 7 9 9 8 13 16 18 7 9 17 15 7 12 19 14 3 5 8 7 5 6 7 5 3 5 7 8 9 8 7 7 8 9 9 10 10 10 10 11 9 10 10 10 10 6 6 7 8 5 8 6 5 8 9 8 9 13 14 12 9 7 7 6 6 8 9 9 7 7 7 8 8 8 8 8 8 8 8 7
2 4 4 1 5 1 2 4 6 8 10 13 16 17 15 12 10 10 10 2 12 13 5 7 4 5 4 4 4 3 2 7 6 5 7 9 9 9 10 10 9 8 8 7 8 8 10 9 10 10 10 9 9 8 9 7 6 8 4 6 8 9 9 12 13 11 7 5 5 4 5 7 6 5 5 7 8 8 9 9 8 7 7 7 8 9 8
4 6 4 4 4 4 2 4 4 7 10 11 12 8 4 3 5 10 13 11 15 13 2 4 8 7 6 6 5 8 7 2 2 6 8 9 10 10 9 10 9 6 7 8 8 8 9 9 9 9 9 9 9 9 8 8 8 5 4 7 8 8 11 12 11 8 6 7 5 6 7 5 5 6 7 7 8 8 9 8 8 7 7 8 8 7 8
4 4 5 5 4 2 4 6 7 10 10 8 4 6 6 7 12 10 4 8 16 11 1 6 3 5 5 9 8 5 4 1 4 7 7 8 8 9 9 8 7 7 8 8 8 9 9 9 9 8 9 9 8 10 8 8 7 3 5 6 8 9 11 10 9 8 8 6 7 8 7 9 9 9 7 8 9 9 8 9 8 6 8 9 7 7 7
8 2 3 4 5 2 4 11 17 17 8 6 5 4 6 11 8 5 8 15 13 7 2 4 10 5 6 7 7 4 1 2 5 6 5 4 5 6 6 7 7 7 7 7 7 8 7 9 9 9 7 8 9 9 9 8 5 4 5 6 7 9 9 9 9 7 6 7 8 7 9 9 7 7 8 9 9 9 11 8 5 9 9 7 8 7 8
4 4 5 3 3 12 13 12 11 9 14 14 11 9 13 11 10 8 11 11 9 7 7 9 13 10 5 3 2 0 1 3 4 5 4 3 4 5 5 5 5 5 7 7 7 6 7 8 7 8 7 7 9 9 9 9 7 6 5 6 6 9 8 8 8 7 7 7 8 8 5 5 5 6 8 10 9 7 6 5 8 8 6 8 7 8 8
6 2 5 4 13 11 5 1 7 14 16 14 17 19 17 11 11 9 10 12 14 15 13 10 10 5 3 4 5 8 6 5 4 4 4 4 4 6 6 8 7 6 5 7 8 9 9 8 9 10 11 8 9 9 8 9 8 6 5 6 7 8 8 8 6 7 6 6 7 6 5 5 6 7 8 6 6 6 7 8 9 10 10 10 9 8 8
2 3 7 9 7 2 2 5 5 1 4 8 6 9 10 10 11 11 13 15 16 15 14 10 3 4 1 3 4 4 3 2 4 5 5 6 5 6 7 6 9 9 8 7 7 9 8 8 9 7 8 9 9 11 8 8 9 7 6 6 8 7 8 7 7 6 5 7 7 6 6 6 7 8 8 8 9 7 7 7 6 5 5 6 8 8 7
8 7 9 11 5 8 5 5 4 6 6 6 9 9 9 6 6 10 12 12 11 9 5 4 4 3 1 5 0 1 4 3 1 1 4 5 6 6 7 5 8 8 7 7 8 6 7 7 8 8 7 7 8 9 10 9 7 8 7 8 9 7 8 8 7 6 6 7 7 7 6 7 9 9 9 9 8 6 8 8 8 8 9 8 7 8 8
7 8 8 4 7 11 12 9 0 2 4 6 8 8 5 0 2 1 5 9 4 2 4 5 4 1 2 3 1 7 6 6 7 1 1 4 5 5 7 7 6 7 7 7 6 5 8 10 9 6 5 7 7 8 9 8 8 9 7 9 9 8 9 8 6 5 6 6 7 7 7 9 10 9 8 6 7 7 9 9 9 9 7 7 6 6 8
6 5 7 6 7 7 6 4 4 4 3 8 5 4 7 1 1 2 5 7 4 3 3 4 4 2 4 2 2 8 6 8 6 7 8 5 4 5 6 6 8 9 9 8 9 9 8 9 10 7 7 6 7 9 9 8 7 9 10 9 9 9 10 8 6 6 6 6 7 7 8 9 8 8 8 9 6 6 7 6 7 6 6 6 5 5 6
4 6 6 7 3 3 3 1 1 0 4 6 6 6 5 4 2 2 4 6 4 2 1 3 7 5 1 4 5 5 5 5 7 5 7 9 9 8 7 6 5 6 6 6 8 9 9 11 10 9 8 8 9 9 9 7 9 10 10 9 9 7 8 8 7 7 6 7 7 8 9 7 6 7 5 4 5 6 6 6 6 6 6 6 7 6 5
8 9 4 2 4 3 3 4 4 1 2 5 7 11 3 4 4 3 4 5 4 3 2 1 2 2 2 4 5 5 5 6 8 6 4 5 6 8 8 9 8 6 6 5 8 8 8 9 8 8 7 8 11 10 9 9 11 11 9 8 8 8 8 7 7 7 6 6 8 7 6 6 5 4 4 6 5 6 6 5 5 5 6 5 6 5 5
9 8 8 7 4 5 6 2 3 4 5 6 9 2 1 8 4 3 3 4 3 3 1 2 3 3 4 3 4 5 5 5 5 7 8 7 6 6 6 8 8 7 7 7 8 8 5 6 5 5 5 7 9 9 9 12 12 9 8 9 9 8 8 8 7 6 6 6 5 5 4 4 4 5 4 4 6 6 6 6 7 6 5 5 5 5 4
4 3 6 5 9 2 3 6 2 2 5 5 4 5 1 2 4 4 2 1 2 5 1 3 3 4 4 4 5 4 5 5 5 5 6 7 7 8 7 8 6 5 8 9 10 10 7 5 4 4 5 8 10 9 11 13 9 8 9 9 8 8 7 7 7 6 5 5 6 3 4 4 5 5 4 5 5 6 6 6 6 7 7 6 5 5 4
5 8 8 7 5 2 2 4 7 3 3 4 6 6 5 2 2 4 4 4 3 2 2 4 3 3 3 4 2 4 4 4 5 5 5 5 6 7 5 4 7 7 9 9 10 11 11 8 5 3 3 7 8 10 14 12 8 8 8 8 7 7 7 7 6 6 5 4 4 4 4 4 4 5 6 5 5 6 6 7 7 7 5 5 5 5 5
7 6 5 2 2 2 1 2 2 5 4 4 6 6 5 5 5 3 4 5 4 6 4 3 4 5 3 3 3 4 8 7 7 10 10 8 8 8 10 10 9 6 7 10 12 13 11 9 9 6 3 6 10 11 11 7 9 9 9 8 7 8 8 7 5 4 2 2 3 4 4 6 6 6 5 6 6 4 6 6 6 7 6 5 6 6 5
0 1 0 1 1 1 2 1 2 7 5 2 5 5 2 1 3 7 5 3 2 2 2 1 4 3 5 7 8 6 7 8 9 8 11 12 10 10 9 10 11 10 10 10 10 11 14 9 9 9 6 4 10 15 11 7 8 8 8 8 8 9 8 6 5 3 3 2 2 3 4 5 6 6 8 8 7 6 6 6 6 6 6 6 5 5 5
6 7 4 6 6 0 0 2 3 3 3 4 3 3 2 2 2 3 3 1 1 2 1 3 4 4 4 6 7 6 5 5 5 7 9 11 10 10 12 11 10 11 10 12 13 13 15 12 8 9 9 8 8 11 11 9 8 7 7 7 9 8 7 7 4 3 4 4 3 3 4 3 4 5 5 6 7 7 7 7 7 6 7 7 6 6 6
5 4 2 4 1 2 1 1 6 4 4 2 2 1 1 2 1 2 2 0 2 2 1 3 2 4 3 3 6 6 6 7 7 7 8 9 11 12 9 10 10 9 9 9 12 12 14 13 10 10 10 10 10 10 10 9 7 6 7 7 8 8 7 5 5 4 5 5 4 4 4 5 6 5 5 6 8 9 10 9 9 8 9 9 10 10 9
2 2 1 2 2 3 3 3 4 3 4 2 2 4 5 5 7 6 4 4 2 1 2 2 2 3 4 2 4 6 7 8 8 9 9 9 9 10 11 11 10 12 12 13 13 12 13 11 10 11 12 11 10 10 10 8 6 6 8 7 8 7 6 5 6 4 4 4 5 5 5 5 5 5 7 7 7 6 6 6 8 10 11 9 8 8 8
3 9 6 5 5 3 2 1 3 2 1 2 2 4 7 7 7 7 6 5 3 3 4 4 5 5 6 4 4 6 7 7 8 9 10 10 11 11 9 8 9 11 11 11 13 15 13 10 9 10 12 12 10 9 9 8 6 7 8 8 7 8 7 6 6 5 5 5 4 5 5 5 5 3 1 4 3 4 5 5 3 1 4 6 6 7 8
7 3 3 4 5 3 2 6 2 3 1 4 6 5 4 4 4 4 4 5 7 5 4 4 4 5 7 9 7 8 8 8 7 8 9 10 11 12 11 12 12 11 11 12 12 14 15 12 11 11 11 11 10 9 8 8 7 8 7 8 8 8 7 7 7 7 6 6 6 5 5 5 4 5 2 1 3 4 3 3 4 4 5 5 6 6 6
0 3 5 4 3 2 3 7 6 4 2 5 8 4 3 3 2 2 1 1 2 4 4 4 5 5 6 6 7 10 12 10 9 11 11 11 9 10 10 9 10 12 13 12 12 14 14 14 14 13 13 12 7 7 7 7 7 8 8 8 9 9 7 7 7 7 6 6 6 6 6 5 5 5 5 4 2 5 7 7 6 7 7 7 9 10 9
2 2 4 3 2 3 4 8 8 6 3 3 5 4 3 3 3 3 2 1 2 1 1 3 5 5 6 6 6 7 10 12 10 10 13 14 13 10 10 11 11 11 12 13 13 13 13 14 15 15 14 14 9 6 7 6 6 8 9 9 10 9 7 7 7 8 7 7 7 7 7 7 6 6 6 6 6 4 5 7 8 8 9 10 12 13 13
5 5 1 1 6 5 4 5 6 7 5 5 4 2 2 3 2 2 2 2 1 2 2 2 2 3 6 8 8 8 10 12 12 12 11 10 10 10 11 10 13 13 14 14 14 14 13 14 14 14 15 15 10 8 7 6 7 9 10 10 10 9 8 7 7 7 7 7 7 7 7 7 7 6 6 5 6 6 6 6 6 7 11 13 14 15 16
6 2 4 5 3 4 3 2 2 3 4 6 6 4 5 5 5 3 2 2 2 3 3 4 3 4 5 5 8 8 9 14 13 10 8 10 10 10 11 13 15 16 17 17 16 14 15 15 14 13 14 14 10 9 8 7 7 9 10 10 9 10 12 9 7 8 7 6 7 6 6 7 6 6 6 5 5 7 7 8 8 7 5 7 11 13 10
5 7 3 3 3 5 4 1 1 3 7 6 6 6 6 5 5 4 4 4 4 3 3 3 5 6 7 7 9 11 10 9 12 13 13 12 11 11 12 14 15 16 15 15 15 14 13 13 12 13 15 10 8 9 8 8 8 9 9 9 9 9 8 9 9 7 7 7 6 6 6 6 6 6 5 5 5 5 4 5 5 6 5 5 5 9 13
5 5 5 5 4 4 3 3 5 5 5 6 5 4 5 7 6 6 6 7 7 8 6 5 4 5 6 8 8 9 11 12 13 13 14 13 13 13 13 15 16 16 14 14 13 11 10 11 11 13 15 8 8 8 8 8 8 9 9 9 9 9 9 8 8 7 7 6 6 7 6 5 5 6 6 5 4 5 5 6 6 5 5 6 6 6 7
1 2 4 4 4 3 6 3 3 3 4 5 6 4 4 5 6 5 7 8 7 8 7 7 8 7 6 7 6 8 11 14 15 15 15 14 13 12 13 14 15 15 12 10 9 10 13 14 14 15 14 10 8 8 8 7 8 9 10 11 10 10 9 7 6 7 6 7 7 8 7 7 7 7 7 6 6 6 6 6 6 7 7 6 6 6 7
0 1 2 5 5 4 6 4 4 2 3 3 5 3 4 3 2 4 6 7 7 8 8 8 9 9 7 6 8 9 10 12 14 15 15 15 13 12 13 11 11 14 16 18 17 15 14 15 14 13 11 9 9 8 7 8 8 8 9 9 10 12 14 11 9 7 7 7 7 8 8 8 8 9 8 8 7 6 6 6 7 6 5 6 6 6 5
5 6 5 3 3 3 4 3 3 3 4 3 4 5 6 5 5 8 7 7 7 9 11 10 9 9 9 9 10 12 12 13 14 14 14 14 13 10 8 10 13 15 17 18 16 15 15 16 17 15 9 8 8 8 7 8 7 8 9 9 10 9 9 12 9 9 7 6 7 8 8 9 8 8 8 8 9 9 8 8 8 8 8 8 8 7 5
4 1 2 2 0 1 1 1 2 2 2 3 2 2 2 2 3 4 6 7 9 9 9 10 9 9 10 11 11 12 13 14 14 14 12 12 11 12 12 12 13 15 16 14 14 15 15 16 17 14 10 9 8 8 7 8 8 8 9 9 9 9 7 8 9 8 7 8 8 8 7 7 7 8 8 8 7 7 8 8 7 7 6 5 6 5 4
4 4 2 3 2 3 3 2 0 1 2 2 3 3 4 4 4 5 6 6 7 8 8 9 10 10 10 11 11 11 12 13 13 12 12 14 15 13 12 13 12 15 15 15 15 13 11 12 12 11 10 9 9 8 8 8 8 9 10 10 10 8 8 7 8 8 7 6 5 4 5 4 6 7 5 6 7 7 7 7 6 6 6 6 5 5 5
7 5 4 3 3 3 2 1 0 1 2 4 4 3 4 5 5 6 8 8 8 8 9 10 10 10 11 11 11 11 10 11 14 16 17 15 15 16 14 15 17 15 17 15 13 12 8 8 8 9 10 10 9 9 9 9 9 9 10 11 10 9 8 6 8 9 9 9 8 8 8 8 7 5 5 6 7 6 6 5 7 6 7 7 5 4 6
3 4 3 3 2 2 1 0 0 1 2 3 4 5 5 5 5 6 7 8 7 8 9 10 10 10 10 10 11 11 12 12 13 14 15 15 15 14 15 17 17 18 19 18 6 6 12 8 11 12 11 10 10 10 10 9 9 10 11 10 9 8 7 7 7 8 6 7 8 8 8 8 8 7 7 7 7 7 7 7 7 7 7 7 7 6 6
4 4 3 1 0 1 0 0 1 2 3 4 4 5 6 5 6 6 6 7 7 7 8 8 9 9 10 10 10 11 11 11 11 12 14 14 13 15 16 16 17 17 16 16 7 9 13 9 13 16 12 9 10 10 10 12 9 9 9 9 8 8 7 7 7 6 6 6 7 6 5 5 6 6 5 8 8 8 8 9 7 7 8 7 7 7 6
3 2 1 1 0 0 2 3 2 2 3 6 5 5 6 6 6 6 6 6 7 7 7 7 9 10 10 10 10 11 11 11 12 14 14 16 16 17 17 12 13 12 13 13 13 13 11 13 16 13 10 10 10 10 11 13 13 9 9 9 8 7 6 6 5 4 4 5 4 6 7 7 7 7 6 6 6 7 6 7 7 9 8 7 6 6 6
2 1 2 1 1 1 3 3 2 2 2 6 5 5 6 5 5 5 6 6 7 7 7 8 8 9 10 10 11 10 10 11 12 14 16 18 16 14 14 12 14 13 10 11 12 12 12 13 13 11 10 10 11 11 12 13 13 9 9 8 8 7 6 5 7 5 4 5 7 7 6 5 6 6 6 6 6 6 4 7 8 6 7 7 7 6 6
1 1 0 0 0 2 1 3 2 4 4 3 4 6 6 4 6 5 6 6 7 5 6 7 8 9 10 10 11 11 10 12 13 14 16 16 16 15 15 11 7 8 11 15 12 10 14 19 14 10 10 9 9 8 9 11 11 8 8 7 6 4 4 3 4 5 6 6 7 7 6 6 7 6 6 6 7 7 6 7 8 7 7 7 7 7 6
1 0 0 0 1 1 1 2 4 4 4 4 4 5 5 4 5 5 7 7 7 6 7 7 8 9 9 10 11 12 12 12 12 13 13 12 12 10 10 13 7 8 12 11 12 12 14 12 10 10 9 9 9 9 8 10 9 7 7 5 5 5 5 5 5 5 4 5 4 7 7 7 7 7 5 7 7 7 7 7 7 7 6 9 9 6 6
0 0 0 0 1 2 3 3 3 5 5 4 4 4 5 5 4 5 7 7 7 7 6 7 8 10 10 10 10 11 13 14 12 11 11 10 10 10 9 9 9 10 15 17 14 12 10 10 9 8 9 8 9 11 11 8 6 6 5 4 3 2 2 3 3 5 4 5 6 6 5 6 7 7 7 6 7 7 7 7 7 7 6 7 7 7 7
0 0 1 1 1 2 3 3 3 4 6 5 4 5 5 4 4 5 5 5 5 6 6 6 7 8 9 9 10 11 11 10 12 12 9 8 12 11 7 9 11 11 18 13 11 9 8 8 8 7 11 10 8 11 11 6 4 3 2 1 1 1 2 4 4 3 4 5 6 6 6 6 6 7 7 7 6 6 7 7 7 7 7 6 6 6 6
1 1 1 0 1 2 2 2 3 3 4 5 5 5 4 4 4 4 5 5 6 6 5 6 6 7 7 8 8 8 8 9 9 7 7 9 8 6 5 8 9 12 16 12 9 9 8 8 8 10 13 13 12 9 5 3 3 2 3 3 3 2 2 3 4 5 5 5 6 6 6 5 6 6 7 8 7 7 6 6 6 6 7 6 6 6 6
0 0 0 1 1 1 2 3 3 4 4 4 5 5 4 4 5 5 4 5 6 6 5 5 5 6 7 7 7 7 8 8 8 6 7 8 9 9 8 9 10 9 11 14 9 9 9 9 12 15 11 12 12 10 5 4 4 4 3 4 3 3 3 4 4 4 4 5 5 5 3 5 7 8 8 6 6 7 7 7 7 7 7 7 7 7 7
2 1 0 3 2 2 2 2 3 2 3 3 4 4 4 5 5 5 5 5 6 6 5 5 5 7 7 8 8 8 7 7 8 3 2 5 6 8 9 9 9 9 15 15 8 8 8 15 18 17 14 13 11 7 6 6 5 4 5 5 5 4 5 4 5 5 4 4 4 5 6 6 7 6 5 5 5 6 6 7 5 5 4 5 5 5 5
3 2 2 3 1 1 2 2 1 2 3 3 4 5 5 5 5 4 5 6 5 6 6 5 5 5 6 7 8 8 8 7 7 3 2 5 7 7 9 11 10 13 13 9 9 9 11 12 15 18 17 15 12 7 7 6 6 6 6 6 6 6 5 5 6 5 4 4 4 6 6 6 5 5 5 6 5 5 5 5 5 5 5 5 7 5 6
4 4 2 2 1 2 3 3 3 4 4 4 3 5 4 5 6 5 5 5 7 6 5 5 5 5 6 7 7 6 6 7 8 6 5 7 7 7 7 7 9 14 14 9 11 11 18 20 20 20 19 15 10 8 8 7 7 7 7 7 7 7 7 7 6 6 4 4 5 5 5 5 5 5 4 5 5 5 4 5 5 5 4 4 4 4 5
3 4 3 4 2 4 3 2 2 4 3 3 4 4 4 5 5 5 4 7 8 7 6 6 6 5 5 7 5 6 6 6 4 5 7 7 7 7 7 9 12 13 10 7 9 8 13 18 18 18 17 13 8 8 8 7 8 8 8 7 7 7 7 6 6 5 5 6 6 6 5 5 4 4 5 4 4 5 3 4 4 4 4 5 6 4 6
3 4 4 2 1 2 2 3 3 2 3 4 4 5 5 4 5 5 5 5 5 7 5 5 6 6 5 6 6 6 6 6 6 6 6 6 7 7 7 8 8 11 11 8 8 8 11 16 14 15 12 8 8 8 8 8 8 8 7 8 8 7 7 7 7 9 8 6 6 5 5 4 4 5 5 5 5 5 5 6 5 4 7 5 3 4 4
2 3 1 1 0 0 2 3 1 2 2 3 4 5 4 3 3 6 5 6 5 6 6 7 6 5 5 6 6 6 7 7 6 7 6 6 6 7 8 7 8 8 9 7 7 7 7 8 8 9 9 8 8 8 8 8 7 8 8 8 8 7 7 7 6 6 7 6 5 5 4 3 4 4 4 4 6 6 5 4 4 4 3 3 3 3 3
3 3 2 2 1 1 0 0 1 3 2 3 3 4 5 4 4 5 5 5 5 5 5 7 8 6 4 6 7 7 7 7 7 6 6 6 6 5 7 9 7 7 8 7 7 7 7 7 8 10 10 8 7 7 8 9 8 7 7 7 6 7 7 7 6 6 5 5 4 4 4 3 3 4 5 4 5 5 4 4 3 3 3 2 3 3 3
Wind_Direction
175 156 128 142 171 191 190 200 182 187 196 179 193 217 225 185 197 231 243 177 226 251 258 172 202 222 225 230 239 233 230 279 303 288 288 293 293 288 286 275 276 279 282 281 286 291 294 304 309 310 306 305 296 279 263 265 250 240 228 213 225 228 228 231 235 236 237 231 228 232 229 226 215 208 204 200 198 200 203 212 209 210 205 201 198 205 205
185 214 162 152 120 150 90 146 182 188 177 202 207 218 224 213 225 248 272 238 238 254 276 115 209 235 236 240 232 274 272 246 253 299 295 285 282 283 278 275 271 271 277 295 299 302 305 302 296 295 300 299 297 292 285 272 255 253 195 223 227 232 230 234 240 244 249 256 249 252 234 228 227 215 200 198 198 204 209 209 209 204 203 206 207 202 200
239 231 173 137 160 139 215 239 204 201 203 214 218 228 241 100 283 272 266 276 275 258 200 226 219 235 265 282 268 244 247 287 255 249 256 267 273 274 276 276 287 316 315 298 296 296 286 288 287 292 293 294 300 298 284 282 269 260 190 229 230 233 237 238 243 247 241 234 213 217 217 224 218 206 207 202 204 210 211 207 207 202 198 207 210 207 203
278 222 183 194 111 135 208 254 233 222 215 219 201 202 201 189 223 237 285 281 259 271 142 260 260 137 226 254 264 284 320 326 219 228 242 250 263 278 292 313 320 309 304 307 307 302 301 301 303 302 303 306 307 296 292 285 279 245 207 228 233 238 242 250 250 247 242 231 217 222 207 216 207 207 200 199 207 209 207 208 208 191 204 208 203 204 204
240 259 135 193 143 114 260 239 236 227 219 211 215 222 199 209 198 209 225 244 254 271 189 262 280 220 221 274 293 340 20 245 237 244 264 302 304 297 308 314 319 316 313 310 304 304 305 305 310 307 311 311 302 298 302 295 294 241 233 230 240 246 250 248 251 248 243 234 236 230 223 217 206 196 200 205 210 207 210 204 184 200 209 199 206 202 202
247 255 120 109 159 230 233 237 219 205 228 219 218 231 224 219 176 208 217 246 274 281 267 241 259 281 277 272 333 356 297 301 320 344 9 329 323 326 322 320 309 309 313 311 306 296 291 293 295 298 305 293 291 296 296 303 304 284 260 261 244 255 255 251 248 242 237 234 237 237 231 220 206 208 207 215 213 208 197 186 198 205 203 205 203 203 202
213 137 114 189 224 233 234 72 156 200 219 230 230 236 238 231 212 228 251 252 251 252 257 266 271 294 6 73 89 42 30 62 59 13 349 345 332 328 326 327 324 317 305 306 314 320 323 321 316 324 320 320 315 312 313 313 306 303 283 273 268 261 264 264 257 248 241 239 242 241 223 212 210 215 216 219 208 201 196 196 196 200 199 202 205 202 204
69 139 168 233 228 228 340 266 233 268 207 228 229 268 267 253 240 226 234 242 249 257 262 272 355 63 310 105 109 87 34 80 56 15 341 327 327 324 319 311 308 317 321 314 303 303 307 316 315 315 304 316 322 310 314 308 309 308 297 283 275 275 272 270 261 255 241 243 240 234 220 212 212 217 212 207 205 195 195 205 213 209 218 206 204 205 205
211 181 211 224 2 327 289 281 244 154 167 151 169 227 248 247 235 225 235 245 253 261 293 347 349 339 128 105 267 133 53 11 95 359 310 305 309 309 304 300 293 296 297 305 304 299 303 304 307 307 307 314 310 308 312 308 311 304 307 294 286 283 276 270 262 252 238 238 240 231 217 213 217 216 210 209 206 182 193 198 197 200 204 202 202 200 198
190 204 222 216 225 237 247 229 20 227 165 153 178 176 266 358 312 318 211 235 267 347 340 347 327 285 25 313 19 318 350 346 336 330 244 276 290 290 292 306 302 301 305 306 305 313 312 312 302 297 305 306 307 304 301 304 310 302 301 288 287 287 280 276 268 254 239 231 237 231 217 220 219 218 213 208 200 186 195 192 201 203 197 197 198 198 196
147 191 213 214 201 240 241 260 209 237 201 158 133 140 241 220 223 303 110 104 101 91 45 333 4 36 267 218 318 301 330 329 333 329 320 311 282 283 289 294 304 309 309 314 310 317 313 312 313 321 316 310 309 306 305 305 303 296 289 285 284 281 282 282 272 254 240 232 232 229 226 227 219 215 206 204 194 186 201 193 201 184 186 189 193 195 200
211 181 212 228 209 234 261 203 118 231 148 124 110 213 252 195 233 207 118 120 129 133 71 86 64 95 202 259 263 269 300 307 301 297 303 316 321 317 312 301 277 280 288 309 313 314 314 307 312 317 318 318 311 305 304 304 297 288 283 279 281 280 278 277 271 261 242 237 235 227 231 227 217 216 197 184 183 186 197 188 185 178 184 186 187 195 186
219 218 247 264 274 273 218 198 226 179 136 103 172 219 212 184 210 208 159 153 161 151 114 136 87 219 183 217 243 290 307 328 312 305 275 264 275 289 300 300 308 310 302 292 287 288 289 292 299 307 313 317 310 309 308 306 295 289 290 291 285 279 275 273 268 258 250 236 240 237 226 223 208 197 183 187 178 183 182 175 166 173 178 180 182 184 180
216 216 231 239 275 230 204 249 165 168 120 206 214 233 149 148 193 194 161 164 206 158 156 180 182 224 243 255 286 287 276 253 256 269 287 300 297 274 271 288 303 308 312 299 290 292 284 275 276 286 297 299 294 299 302 295 289 293 299 291 286 283 276 269 268 264 257 253 246 244 221 184 177 195 194 177 183 178 171 168 172 177 173 173 175 176 179
217 191 226 218 232 271 109 153 48 170 182 225 158 129 5 140 169 137 210 175 182 160 231 220 218 257 279 278 276 266 277 285 285 288 292 301 303 310 317 319 303 294 306 313 314 310 312 310 299 294 303 299 299 299 293 285 292 297 292 290 285 280 276 274 267 261 257 246 240 212 198 188 184 186 178 172 176 170 167 169 172 173 174 171 167 172 174
185 193 207 208 224 166 240 165 204 205 188 163 137 122 136 215 157 167 177 228 230 217 234 265 265 238 258 290 267 279 272 281 300 299 293 291 301 306 297 275 298 318 315 312 314 315 318 321 315 294 270 289 292 295 290 297 301 297 293 286 285 279 273 267 269 265 254 243 222 196 189 176 177 171 175 176 172 177 173 169 169 171 179 169 166 171 176
166 197 209 241 140 139 219 158 161 124 136 130 161 119 138 148 230 189 152 219 234 220 212 247 276 308 292 289 307 328 318 327 330 330 327 326 319 319 318 321 316 315 314 314 315 314 314 321 319 320 305 293 297 290 286 300 296 301 301 297 286 276 270 270 265 264 254 226 205 188 186 173 173 176 174 169 173 183 171 175 174 175 177 176 179 181 179
200 290 171 159 45 96 62 29 100 133 128 67 90 104 115 237 191 174 186 224 209 244 210 207 306 275 297 327 328 332 327 325 322 323 321 324 326 323 324 325 332 325 322 317 312 310 310 316 317 314 312 299 298 295 302 297 288 289 292 290 281 270 273 270 264 249 222 230 203 198 192 194 189 182 174 177 176 175 174 182 179 177 172 174 179 172 182
146 236 160 136 162 221 292 126 57 67 134 162 147 95 164 227 224 235 312 358 247 214 164 193 251 293 325 323 313 313 309 305 304 310 310 310 315 320 320 317 322 323 324 321 317 316 311 313 317 308 310 299 277 286 295 294 290 286 280 272 270 272 267 264 263 244 227 225 215 208 200 196 191 183 182 178 174 176 182 180 182 180 176 175 173 172 175
169 238 175 188 200 236 34 101 124 116 115 98 208 248 27 64 51 80 20 18 351 4 343 282 292 283 302 311 304 311 310 312 312 309 306 307 313 313 313 311 316 310 308 307 307 309 307 310 316 307 302 297 295 294 293 291 283 280 272 263 262 264 258 250 246 235 233 226 211 209 209 191 183 191 197 190 187 190 186 187 183 189 183 183 183 181 180
278 344 312 280 9 351 43 95 74 115 130 132 313 19 45 52 56 30 39 54 20 39 315 337 321 310 289 268 283 297 303 307 310 310 307 306 302 303 313 315 319 315 314 312 306 304 299 303 307 304 301 300 300 297 291 290 279 268 264 261 259 262 257 242 242 228 225 226 216 211 214 216 213 203 191 194 201 211 222 202 196 189 188 194 193 188 177
196 201 199 156 133 241 156 147 141 119 359 94 91 66 56 47 41 22 17 0 31 47 17 2 348 336 315 316 310 301 297 294 299 304 306 306 308 307 306 306 304 303 300 300 304 304 300 301 301 300 300 299 299 296 293 286 269 258 262 262 259 255 241 235 232 223 216 213 215 216 217 215 210 226 247 201 232 225 223 206 185 32 210 208 193 174 175
224 210 177 165 147 149 209 141 127 44 354 101 85 74 78 66 55 27 24 353 348 3 356 346 351 336 329 323 329 315 306 303 299 297 300 306 309 309 315 315 311 307 305 305 303 301 302 309 305 301 297 295 296 293 286 280 265 256 256 259 257 253 238 235 224 214 208 204 204 202 208 208 206 197 186 73 103 110 111 120 131 142 170 158 156 165 168
221 182 162 174 113 199 122 122 117 75 16 106 100 94 76 79 36 9 10 311 298 318 346 346 2 342 323 319 328 315 308 308 317 316 311 306 303 305 306 300 300 305 306 306 304 302 305 307 305 304 301 296 291 285 279 268 256 254 249 245 253 250 237 236 224 217 205 198 190 186 197 192 195 200 196 182 134 149 143 146 152 162 165 160 170 171 168
193 182 178 183 150 86 92 122 101 95 71 86 113 93 67 29 359 351 327 316 305 299 354 339 330 325 327 328 323 308 303 305 310 312 307 306 306 309 311 313 310 308 305 303 300 299 301 302 302 301 299 297 304 293 281 263 251 250 249 243 250 253 242 232 226 218 209 202 193 187 187 184 195 194 198 198 183 160 158 160 169 178 181 185 185 182 173
97 122 197 45 72 88 129 93 63 54 47 65 82 74 41 29 330 332 299 289 331 27 31 317 301 326 356 326 315 315 309 299 305 309 302 301 311 318 317 316 316 311 305 300 298 298 299 298 295 296 295 295 306 298 288 270 253 249 250 245 244 244 237 225 221 222 216 210 203 200 187 187 187 187 199 198 194 176 159 157 178 195 200 195 190 183 181
48 30 141 107 76 63 11 159 164 65 73 63 62 37 9 348 341 319 314 352 30 15 357 332 356 355 335 316 314 311 307 306 310 306 306 306 309 312 314 315 309 303 300 298 297 297 299 296 294 292 287 292 305 300 294 278 262 257 253 251 251 247 239 227 218 221 215 210 211 205 195 186 182 183 184 190 182 181 179 177 176 175 166 184 189 181 174
58 13 21 172 205 177 166 150 103 89 68 59 35 18 354 352 349 356 353 348 353 360 356 355 8 352 335 332 329 317 315 313 310 310 312 306 311 314 310 304 301 299 295 291 290 295 296 290 289 289 286 294 296 294 292 282 273 265 262 255 253 250 242 229 222 217 206 208 205 202 200 192 182 176 170 170 179 178 160 149 152 146 142 155 154 175 171
36 36 31 65 94 111 114 109 75 61 60 41 38 12 5 11 356 357 350 350 340 340 342 346 3 348 328 322 325 315 317 313 308 305 303 306 308 308 307 304 297 292 287 285 285 288 289 293 293 291 289 298 291 288 283 279 272 270 267 260 253 251 243 233 225 212 206 196 198 197 189 176 169 165 166 170 165 161 158 156 149 144 146 135 132 149 161
29 55 66 80 73 97 105 90 83 60 54 21 18 15 18 27 1 349 334 334 341 330 325 332 330 326 326 313 315 322 314 310 306 304 302 301 304 304 303 299 295 288 287 284 294 308 306 300 296 291 294 304 298 289 279 272 269 265 265 263 259 253 250 240 227 218 202 196 195 183 180 174 178 173 170 170 169 169 161 156 156 156 155 149 144 148 155
291 31 100 96 81 69 99 105 84 60 48 20 14 4 12 25 358 320 327 325 325 315 322 325 317 315 317 317 316 312 304 298 297 297 298 301 300 297 290 290 308 315 311 307 308 307 302 298 292 286 293 299 300 294 282 272 270 271 270 267 263 256 250 238 226 218 206 199 196 190 187 183 182 177 172 165 167 166 159 152 155 157 151 147 147 143 151
89 86 101 77 80 109 104 85 77 40 8 359 5 9 7 2 340 328 324 324 319 321 315 318 317 318 319 320 317 312 308 302 299 297 296 295 292 286 297 313 307 294 289 291 297 304 303 301 295 293 302 307 304 294 285 276 274 271 268 268 266 261 246 233 227 222 214 206 200 201 196 187 188 181 175 171 172 168 163 161 165 165 163 159 152 145 145
111 84 264 204 135 59 84 73 63 337 355 348 351 328 345 330 319 308 310 310 312 312 310 304 309 313 317 315 313 311 309 305 298 293 292 297 306 311 310 303 292 288 286 287 294 297 295 291 288 295 305 305 301 293 283 274 271 269 271 267 267 258 246 230 221 219 211 207 203 202 203 197 188 182 182 174 165 161 163 164 158 159 157 146 126 115 100
172 190 150 146 148 182 211 251 38 325 313 314 322 332 324 320 316 306 301 298 297 301 301 304 307 309 309 310 310 309 310 312 310 310 310 309 306 306 301 293 288 290 292 294 293 287 283 276 282 296 304 305 299 294 284 276 269 268 267 269 264 257 242 228 215 215 207 205 196 186 190 193 185 184 173 165 160 160 161 157 152 143 126 108 108 94 115
92 93 92 85 68 71 61 113 274 298 306 299 303 308 300 302 303 298 300 305 300 299 302 303 302 304 306 307 306 305 305 299 297 300 302 305 304 305 305 305 305 301 297 295 289 283 295 307 310 304 303 300 295 288 283 276 274 271 271 266 262 252 243 220 213 205 202 201 185 182 179 185 186 164 155 156 158 154 147 144 141 133 129 125 118 104 94
93 92 91 85 63 69 79 129 271 249 270 270 281 283 291 286 290 293 297 292 296 298 297 299 301 303 302 304 305 306 303 298 295 293 295 297 301 304 307 309 307 306 304 301 314 10 335 321 311 310 307 299 294 286 278 277 272 272 270 268 260 249 236 225 217 213 208 192 188 186 183 178 168 162 158 157 153 151 147 138 130 124 129 130 133 118 100
92 108 124 114 142 86 213 238 246 260 254 266 273 283 285 287 282 280 286 291 291 292 295 298 301 301 298 298 295 294 292 293 293 295 296 300 303 304 301 304 305 301 303 300 312 54 323 316 308 309 305 292 291 286 287 282 280 277 272 267 261 252 239 227 221 210 205 194 185 173 152 147 151 152 155 157 157 155 152 145 137 136 137 142 136 124 121
93 99 112 107 223 215 251 257 253 255 274 287 279 269 272 278 284 285 284 287 291 291 295 295 293 292 296 296 293 292 292 292 291 295 300 302 301 298 298 301 301 304 299 295 327 331 317 314 312 310 304 297 293 295 293 292 289 285 272 267 254 248 236 219 207 194 182 170 155 149 159 165 158 157 159 159 152 149 142 133 135 139 142 141 133 127 128
62 67 40 351 63 262 277 293 300 266 247 259 278 286 279 278 282 289 288 285 286 289 293 293 296 298 297 299 298 296 295 295 298 302 303 304 303 298 290 294 286 292 301 313 318 310 312 313 312 307 298 295 295 295 295 292 286 274 269 261 255 239 231 210 203 186 176 161 158 157 151 146 142 144 145 141 133 124 122 127 132 133 137 135 125 126 122
94 104 267 46 344 271 276 274 284 277 267 257 261 278 286 298 292 294 291 293 288 291 294 298 303 300 302 301 301 302 303 303 301 302 304 307 307 299 293 285 291 296 317 318 310 302 303 305 304 297 295 295 296 296 296 297 296 286 269 256 249 238 223 207 187 172 168 165 155 149 145 149 151 155 149 144 141 139 137 137 137 141 139 134 130 127 126
147 176 353 71 311 311 289 292 298 287 294 294 282 273 281 285 288 301 296 296 296 300 296 294 296 293 291 293 297 300 303 302 301 299 304 309 304 299 300 299 321 329 317 310 306 304 302 301 299 297 295 295 292 294 295 298 296 281 278 262 246 220 200 178 168 166 165 167 160 160 153 146 143 143 142 140 136 134 135 136 138 139 143 131 119 131 130
302 104 295 346 322 319 312 301 305 320 314 301 296 301 299 298 298 285 289 295 296 294 292 290 284 289 294 296 297 298 299 298 297 298 304 303 299 299 295 294 324 316 313 314 309 306 304 301 294 290 294 295 294 292 293 291 278 281 275 287 282 282 198 165 170 171 160 157 157 148 147 151 150 144 141 136 138 139 138 135 134 136 132 137 136 139 140
53 50 295 306 300 324 320 318 312 300 302 310 306 307 306 310 308 304 300 300 299 299 297 294 297 300 300 299 301 304 304 303 302 297 301 293 294 284 272 309 323 313 315 313 308 306 304 303 304 301 300 297 290 291 289 282 279 289 310 334 337 317 125 120 105 89 91 101 106 131 146 143 139 140 140 139 136 135 135 140 141 140 136 136 132 131 133
16 315 329 275 305 296 324 317 313 322 336 315 327 321 318 313 310 307 310 309 314 310 308 310 311 310 308 309 309 309 310 315 311 309 315 312 319 315 315 319 316 313 317 318 318 314 312 315 315 315 315 316 313 310 312 313 324 335 10 36 12 19 32 89 107 117 124 128 133 146 139 134 135 139 138 140 139 138 137 133 133 131 132 129 133 132 131
80 328 318 320 288 1 348 332 332 320 307 307 316 317 319 334 328 323 323 327 318 313 314 314 316 320 318 318 310 302 300 302 301 308 329 324 327 318 334 328 319 321 324 328 331 330 330 331 333 336 342 345 347 344 337 336 344 5 21 52 53 51 63 76 87 92 96 103 108 109 111 91 81 87 103 127 130 134 137 135 133 139 138 137 140 141 145
140 99 88 64 44 3 305 305 285 305 315 318 321 323 326 337 328 325 323 328 320 307 298 305 321 319 321 318 311 308 302 303 303 279 271 303 303 305 318 319 325 328 333 336 335 335 337 340 348 355 358 6 3 358 354 350 2 7 25 28 32 24 48 34 60 85 74 67 81 68 69 79 77 72 71 71 101 101 111 117 115 107 105 119 122 104 112
150 114 111 109 15 349 347 338 342 8 3 9 4 339 330 332 327 318 315 317 319 310 307 306 318 316 322 323 327 328 331 325 321 310 330 330 318 317 324 328 332 337 340 342 343 348 354 352 357 1 8 12 18 18 13 10 15 22 25 39 35 40 33 31 37 42 41 57 76 84 87 91 85 83 100 103 101 105 99 105 95 100 98 85 92 111 114
127 126 120 95 63 13 29 35 50 43 25 5 318 303 308 321 324 316 316 330 334 326 323 320 323 326 331 332 327 325 322 325 325 317 357 343 333 334 337 342 340 346 344 338 347 345 357 3 5 7 10 13 17 17 13 7 13 19 27 30 33 35 44 51 44 47 47 39 51 59 62 81 78 83 79 87 94 89 91 91 88 91 94 104 111 117 118
131 123 123 99 69 59 53 53 49 34 355 324 335 311 317 324 316 312 328 338 341 338 328 324 319 328 332 327 327 326 323 329 329 305 323 337 333 337 335 336 340 350 349 345 349 339 354 3 8 10 10 8 10 10 11 12 19 25 30 27 26 30 33 31 39 39 43 39 40 39 43 51 65 74 85 78 80 78 81 83 83 84 90 97 99 99 109
124 102 76 75 76 75 75 62 39 360 320 331 322 313 314 331 345 334 338 329 332 322 319 320 320 322 334 327 318 320 319 325 324 322 330 337 341 343 339 340 339 351 356 357 351 348 348 356 5 8 8 5 7 10 12 13 16 17 21 22 27 30 28 31 41 39 37 42 39 35 30 36 46 72 81 73 77 84 76 78 75 105 117 124 126 136 131
107 110 119 109 100 108 133 111 51 348 339 319 314 306 318 333 317 318 323 327 342 342 338 329 318 316 335 338 324 322 326 327 327 337 340 342 349 344 345 343 342 350 351 355 355 347 348 351 355 2 3 5 5 9 12 14 15 18 18 25 21 24 19 20 20 30 34 33 32 32 35 37 33 49 52 72 70 75 81 93 100 112 113 118 120 129 134
126 122 86 65 63 38 357 304 28 14 348 332 328 319 322 327 334 316 315 333 351 332 326 333 326 324 344 336 325 329 326 331 329 328 337 341 345 342 341 348 345 348 349 349 345 347 354 355 358 6 9 6 2 3 4 13 19 21 19 20 19 22 21 20 19 25 28 31 30 34 32 18 25 54 45 43 55 66 70 87 102 112 115 122 125 132 137